Content
SEND FEEDBACK

Daily
Averages
Monthly
Summary
United States of America

DEERFIELD LAKE, SOUTH DAKOTA


Home > North America > United States > South Dakota
Elevation: 5870 feet     Latitude: 44 01N     Longitude: 103 47W

WEATHER
 
SELECT A DAY
Number of Records: 127,166;   Date Range: 1/1/95 - 12/18/14
 
SHARE

PRINT THIS DATA

[ ← Previous Day ]
WEATHER ALMANAC - FEBRUARY 13, 2013
[ Next Day → ]
[ °C ]   °F
Weather ElementAverageHighLow
Temperature29.1 °F37.9 °F (11:53 am)21 °F (11:53 pm)
Dewpoint19.9 °F27 °F (2:53 pm)9 °F (11:53 pm)
Humidity69.7 %86 % (3:02 pm)45 % (11:53 am)
Barometer29.85 in29.99 in (11:53 pm)29.74 in (2:23 pm)
Wind Speed11.8 mph25.3 mph (11:53 am)
Wind Gust43.7 mph (12:53 pm)
Weather ElementAverage
Visibility6.7 mi
Wind DirectionWSW (259.2 °)

Weather ElementTotal
Precipitation0.16 in
Heating Degree Days35.6 (Base 65)
Averaged from 38 records on February 13, 2013
WEATHER CONDITIONS BREAKOUT
WIND DIRECTION BREAKOUT
WEATHER BY HOUR - FEBRUARY 13, 2013
[ °C ]   °F
Local TimeTemperatureDewpointHumidityBarometerVisibilityWind DirectionWind SpeedGust SpeedPrecipitationEventsConditions
1:53 AM23.0 °F15.1 °F72 %29.89 in10.0 miWSW (240°)4.6 mphClear
2:53 AM23.0 °F16.0 °F74 %29.87 in10.0 miWest (280°)6.9 mphPartly Cloudy
3:53 AM26.1 °F15.1 °F63 %29.86 in10.0 miWest (280°)10.4 mph19.6 mphClear
4:53 AM26.1 °F14.0 °F60 %29.85 in10.0 miWest (270°)18.4 mph33.4 mphClear
5:53 AM24.1 °F12.9 °F62 %29.85 in10.0 miWest (270°)12.7 mphClear
6:53 AM24.1 °F14.0 °F65 %29.87 in10.0 miWest (270°)13.8 mph18.4 mphMostly Cloudy
7:53 AM30.0 °F16.0 °F56 %29.85 in10.0 miWest (270°)11.5 mphOvercast
8:53 AM33.1 °F18.0 °F54 %29.84 in10.0 miWNW (290°)12.7 mph19.6 mphOvercast
9:53 AM34.0 °F18.0 °F52 %29.84 in10.0 miNW (310°)11.5 mph21.9 mphMostly Cloudy
10:53 AM36.0 °F18.0 °F48 %29.82 in10.0 miWNW (300°)17.3 mph29.9 mphMostly Cloudy
11:53 AM37.9 °F18.0 °F45 %29.80 in10.0 miWest (280°)25.3 mph35.7 mphScattered Clouds
12:53 PM37.9 °F19.9 °F48 %29.80 in10.0 miWNW (290°)18.4 mph43.7 mphMostly Cloudy
1:50 PM33.8 °F24.8 °F70 %29.75 in1.5 miWNW (290°)20.7 mph41.4 mph0.00 inSnowLight Snow
1:53 PM30.9 °F25.0 °F79 %29.84 in1.0 miWNW (290°)13.8 mph34.5 mph0.00 inSnowLight Snow
2:23 PM33.8 °F26.6 °F75 %29.74 in3.0 miWest (270°)17.3 mph32.2 mph0.00 inSnowLight Snow
2:48 PM33.8 °F24.8 °F70 %29.75 in1.2 miWNW (300°)19.6 mph34.5 mph0.00 inSnowLight Snow
2:53 PM30.9 °F27.0 °F85 %29.84 in0.2 miWNW (290°)12.7 mph34.5 mph0.00 inFog-SnowHeavy Snow
3:02 PM30.2 °F26.6 °F86 %29.76 in0.5 miWNW (300°)15.0 mph25.3 mph0.00 inFog-SnowLight Snow
3:06 PM30.2 °F26.6 °F86 %29.76 in2.0 miWNW (300°)13.8 mph25.3 mph0.01 inSnowLight Snow
3:10 PM30.2 °F26.6 °F86 %29.76 in5.0 miWNW (300°)12.7 mph23.0 mph0.01 inSnowLight Snow
3:27 PM33.8 °F24.8 °F70 %29.76 in10.0 miWNW (300°)17.3 mph29.9 mph0.01 inScattered Clouds
3:49 PM32.0 °F23.0 °F69 %29.78 in6.0 miNW (320°)12.7 mph21.9 mph0.01 inSnowLight Snow
3:53 PM32.0 °F23.0 °F69 %29.86 in6.0 miNW (320°)15.0 mph27.6 mph0.01 inSnowLight Snow
4:10 PM30.2 °F21.2 °F69 %29.78 in10.0 miNW (320°)12.7 mph23.0 mph0.00 inOvercast
4:53 PM30.0 °F21.9 °F72 %29.88 in10.0 miWNW (290°)11.5 mph20.7 mph0.00 inOvercast
5:53 PM28.9 °F19.9 °F69 %29.90 in10.0 miWNW (290°)16.1 mph25.3 mphMostly Cloudy
6:53 PM28.0 °F19.9 °F72 %29.94 in10.0 miWNW (290°)11.5 mphScattered Clouds
7:53 PM27.0 °F19.0 °F72 %29.94 in10.0 miWest (280°)10.4 mphMostly Cloudy
8:50 PM26.6 °F21.2 °F80 %29.87 in2.0 miWest (270°)8.1 mph0.00 inSnowLight Snow
8:53 PM26.1 °F21.9 °F84 %29.95 in1.2 miWNW (300°)5.8 mph0.00 inSnowLight Snow
9:01 PM26.6 °F23.0 °F86 %29.88 in0.5 miVariable3.5 mph0.01 inFog-SnowSnow
9:11 PM26.6 °F23.0 °F86 %29.88 in0.8 miWest (270°)6.9 mph0.02 inSnowLight Snow
9:16 PM26.6 °F21.2 °F80 %29.87 in1.0 miCalm0.02 inSnowLight Snow
9:21 PM24.8 °F21.2 °F86 %29.88 in3.0 miWest (280°)4.6 mph0.02 inSnowLight Snow
9:27 PM26.6 °F19.4 °F74 %29.87 in9.0 miVariable6.9 mph16.1 mph0.02 inMostly Cloudy
9:53 PM25.0 °F12.0 °F58 %29.95 in10.0 miVariable4.6 mph0.02 inPartly Cloudy
10:53 PM23.0 °F10.0 °F58 %29.96 in10.0 miNW (320°)5.8 mphClear
11:53 PM21.0 °F9.0 °F60 %29.99 in10.0 miNW (310°)4.6 mphClear
Hourly data recorded from KCUT, located miles away from Deerfield Lake, South Dakota







STORIES FROM OUR PARTNERS